Location: Lixville
(37.5770°N, 89.9118°W)
Time: 18:00:14
(UTC+00:00)

ACS3 Solar Sail - Pass Details

Date: 14 October 2024
Orbit: 962 x 1019 km, 97.5° (Epoch: 08 November)

Event Time Altitude Azimuth Distance (km) Brightness Sun altitude
Exits shadow 00:12:54 12° 77° (ENE) 2,659 3.4 -10.4°
Maximum altitude 00:14:37 14° 60° (ENE) 2,572 3.5 -10.7°
Drops below altitude 10° 00:17:31 10° 32° (NNE) 2,840 3.9 -11.3°
Sets 00:21:29 0° 9° (N) 3,800 4.8 -12.1°
